Home > Weather > Mulhouse > Past weeks

Flag for France Past Weather in Mulhouse, Alsace, France — Yesterday and Last 2 Weeks

Now
77 °F

Scattered clouds.


Feels Like: 79 °F
Forecast: 65 / 78 °F
Wind: 8 mph from West

Location: Bale-Mulhouse

Current Time: Jul 23, 2016 at 5:16:56 PM

Latest Report: Jul 23, 2016 at 4:30 PM


Visibility: N/A

Pressure: 30.07 "Hg

Humidity: 57%

Dew Point: 61 °F

Location of MulhouseLocation

Past Weather in Mulhouse — Graph

°F

Mulhouse Temperature Yesterday

Maximum temperature yesterday: 79 °F (at 10:30 AM)
Minimum temperature yesterday: 63 °F (at 10:30 PM)
Average temperature yesterday: 69 °F

High & Low Weather Summary for the Past Weeks

 TemperatureHumidityPressure
High95 °F (Jul 20, 3:30 PM)100% (Jul 13, 1:30 AM)30.33 "Hg (Jul 13, 1:30 AM)
Low45 °F (Jul 16, 5:00 AM)27% (Jul 19, 7:00 PM)29.89 "Hg (Jul 10, 5:00 PM)
Average69 °F71%30.09 "Hg
* Reported Jul 8 4:00 PM — Jul 23 4:00 PM, Mulhouse, Weather by CustomWeather, © 2016

Note: Actual official high and low records may vary slightly from our data, if they occured in-between our weather recording intervals... More about our weather records

Advertising

Mulhouse Weather History for the Previous 24 Hours

Scroll right to see more
 ConditionsComfort  
Time TempWeatherWind HumidityBarometerVisibility
4:00 PM
Sat, Jul 23
79 °FScattered clouds.8 mph58%30.07 "HgN/A
3:30 PM77 °FScattered clouds.10 mph65%30.07 "HgN/A
3:00 PM79 °FScattered clouds.8 mph58%30.07 "HgN/A
2:30 PM77 °FScattered clouds.8 mph61%30.07 "HgN/A
2:00 PM77 °FBroken clouds.7 mph61%30.07 "HgN/A
1:30 PM75 °FScattered clouds.5 mph65%30.07 "HgN/A
1:00 PM77 °FScattered clouds.5 mph65%30.07 "HgN/A
12:30 PM75 °FScattered clouds.3 mph65%30.07 "HgN/A
12:00 PM73 °FPartly sunny.6 mph69%30.07 "HgN/A
11:30 AM73 °FPartly sunny.3 mph69%30.07 "HgN/A
11:00 AM72 °FPartly sunny.3 mph73%30.07 "HgN/A
10:30 AM70 °FPartly sunny.3 mph78%30.07 "HgN/A
10:00 AM70 °FPartly sunny.2 mph78%30.07 "HgN/A
9:30 AM70 °FPartly sunny.2 mph78%30.07 "HgN/A
9:00 AM68 °FPartly sunny.2 mph83%30.07 "HgN/A
8:30 AM66 °FPartly sunny.2 mph88%30.07 "HgN/A
8:00 AM64 °FPartly sunny.3 mph94%30.04 "HgN/A
7:30 AM63 °FPartly sunny.5 mph100%30.04 "HgN/A
7:00 AM63 °FSunny.2 mph94%30.04 "Hg10 mi
6:30 AM63 °FClear.2 mph94%30.04 "Hg10 mi
6:00 AM63 °FClear.No wind94%30.04 "Hg10 mi
5:30 AM63 °FPartly cloudy.2 mph100%30.04 "HgN/A
5:00 AM61 °FPartly cloudy.2 mph100%30.04 "HgN/A
4:30 AM63 °FPartly cloudy.2 mph94%30.04 "HgN/A
4:00 AM63 °FPassing clouds.No wind94%30.04 "Hg6 mi
3:30 AM63 °FClear.No wind94%30.04 "Hg10 mi
3:00 AM63 °FMostly cloudy.2 mph100%30.04 "HgN/A
2:30 AM63 °FPassing clouds.No wind94%30.04 "HgN/A
2:00 AM63 °FClear.3 mph100%30.04 "Hg10 mi
1:30 AM63 °FClear.2 mph94%30.04 "Hg10 mi
1:00 AM63 °FLight rain. Clear.3 mph94%30.04 "HgN/A
12:30 AM63 °FPassing clouds.2 mph94%30.04 "HgN/A
12:00 AM63 °FPassing clouds.1 mph94%30.04 "HgN/A
11:30 PM
Fri, Jul 22
63 °FPassing clouds.1 mph94%30.04 "HgN/A
11:00 PM63 °FClear.2 mph94%30.04 "Hg10 mi
10:30 PM63 °FClear.2 mph94%30.04 "Hg10 mi
10:00 PM64 °FSunny.2 mph88%30.04 "Hg10 mi
9:30 PM64 °FSunny.2 mph94%30.04 "Hg10 mi
9:00 PM66 °FScattered clouds.3 mph83%30.04 "HgN/A
8:30 PM68 °FPartly sunny.5 mph78%30.04 "HgN/A
8:00 PM70 °FScattered clouds.1 mph78%30.01 "HgN/A
7:30 PM68 °FPartly sunny.3 mph83%30.01 "HgN/A
7:00 PM70 °FPartly sunny.5 mph78%30.01 "HgN/A
6:30 PM68 °FBroken clouds.3 mph83%30.01 "HgN/A
6:00 PM68 °FPartly sunny.3 mph83%30.01 "HgN/A
5:30 PM66 °FPartly sunny.5 mph88%30.01 "HgN/A
5:00 PM66 °FPartly sunny.5 mph88%30.04 "HgN/A
Weather by CustomWeather, © 2016

See weather overviewHow to use our weather pages